CAPE
3080 3095 3018 2739 2703 2616 2688 2551 2220 2479 2483 2380 2401 2177 2150 1727 1507 1226 990 606 799 437 251 546 700 348 511 732 502 656 492 434 487 452 289 472 299 286 416 332 240 80
3108 3092 3061 2886 2751 2571 2776 2594 2351 2575 2552 2447 2322 2225 2108 1821 1490 1176 793 476 788 711 483 291 978 492 494 410 556 485 465 451 442 777 363 472 432 356 526 445 143 283
3137 3116 3041 2979 2859 2688 2811 2755 2642 2658 2648 2560 2274 2228 1917 1776 1486 1141 767 544 416 741 640 287 776 734 678 336 327 171 452 295 130 677 443 331 519 288 254 381 422 366
3163 3166 3031 3021 2946 2888 2855 2920 2855 2782 2752 2592 2402 2265 1910 1548 1484 1142 830 1048 534 510 773 656 465 913 738 531 362 134 208 382 287 459 535 426 497 355 401 459 606 381
3159 3160 3118 3038 2983 2993 2846 2975 2920 2845 2819 2586 2473 2210 1989 1347 1532 1247 942 808 736 668 572 772 680 708 752 648 408 204 222 315 477 360 680 597 530 456 473 450 483 478
3114 3118 3174 3079 3024 3004 2906 2901 2955 2824 2841 2680 2435 2230 1852 1327 1343 1053 873 834 790 733 550 609 852 651 731 599 572 336 224 298 364 516 518 812 568 626 625 564 472 275
3137 3034 3125 3099 3022 3022 2942 2911 2919 2877 2848 2712 2462 2267 1984 1551 1180 1163 974 843 764 721 650 605 806 770 676 546 692 431 201 283 333 535 462 650 601 524 471 279 350 385
3178 3017 3070 3071 3030 2977 2982 2856 2878 2963 2884 2806 2494 2386 2049 1740 1444 1215 1066 941 784 726 658 617 726 819 696 569 524 643 368 368 342 515 515 330 694 551 365 335 355 356
3216 3068 3030 3093 3038 2999 2996 2901 2876 2940 2950 2853 2704 2371 2188 1913 1611 1388 1242 1160 926 816 691 614 759 789 768 640 527 574 592 556 477 455 393 323 358 338 512 542 643 539
3242 3159 3064 3083 3039 3009 3019 2980 2893 2903 2984 2893 2834 2608 2335 2038 1754 1556 1428 1299 1044 903 775 647 726 790 788 710 613 612 596 622 581 581 511 300 278 216 215 307 469 469
3280 3261 3203 3139 3066 2985 2985 2996 2917 2864 2950 2928 2890 2745 2540 2267 1983 1754 1574 1364 1117 863 780 718 744 760 796 726 713 718 667 627 642 566 618 462 279 252 569 333 387 403
3338 3346 3346 3304 3203 3073 2997 2936 2895 2819 2874 2982 2905 2806 2655 2431 2206 1960 1734 1476 1229 974 740 711 801 802 779 795 758 758 758 689 646 605 492 664 396 266 400 377 367 466
3385 3429 3450 3449 3367 3228 3083 2955 2819 2817 2835 2946 2974 2843 2706 2543 2328 2067 1854 1635 1357 1103 868 675 776 856 760 763 901 815 755 740 599 570 487 331 636 510 392 402 378 406
3378 3431 3502 3532 3474 3349 3198 3069 2854 2724 2860 2922 2959 2886 2747 2596 2371 2169 1968 1782 1582 1324 1077 799 722 836 786 709 808 823 770 706 676 291 447 327 366 357 378 505 619 684
3440 3399 3524 3606 3543 3402 3261 3143 2991 2764 2827 2957 2949 2906 2752 2619 2496 2260 2091 1925 1754 1559 1299 996 743 753 736 627 427 759 794 750 670 575 353 389 350 364 466 508 633 738
3485 3427 3505 3642 3658 3540 3388 3308 3159 2925 2932 3043 2986 2897 2794 2665 2534 2412 2222 2024 1852 1673 1470 1216 906 711 696 366 443 480 713 683 619 556 358 360 398 368 510 572 607 692
3518 3470 3494 3604 3702 3690 3554 3464 3388 3143 2984 3148 3112 2958 2802 2709 2600 2489 2370 2210 2045 1861 1661 1464 1296 990 720 409 442 508 508 430 372 514 440 364 330 286 330 543 620 689
3662 3598 3542 3562 3686 3776 3712 3592 3508 3342 3098 3186 3266 3146 2942 2757 2681 2600 2513 2399 2285 2138 2005 1849 1570 1244 868 640 517 504 467 338 248 383 382 494 346 346 452 566 694 776
3843 3786 3687 3623 3660 3793 3839 3733 3604 3445 3250 3224 3371 3322 3199 3043 2850 2763 2694 2620 2537 2431 2270 2010 1753 1536 1263 991 814 637 466 319 529 586 630 641 554 550 672 804 887 700
4020 3963 3908 3816 3812 3900 3972 3883 3702 3580 3410 3343 3450 3406 3317 3220 3112 2992 2893 2841 2746 2518 2308 2246 2181 2042 1791 1523 1181 952 788 524 587 632 648 690 684 824 864 833 729 816
4228 4176 4174 4149 4146 4136 4148 4082 3893 3718 3592 3477 3549 3549 3475 3379 3284 3192 3082 2931 2781 2650 2573 2497 2455 2248 2026 1824 1486 1248 668 571 639 660 684 696 678 780 803 771 714 799
4492 4481 4510 4546 4501 4377 4310 4238 4068 3892 3717 3604 3653 3604 3527 3450 3365 3251 3138 2999 2870 2748 2689 2639 2512 2296 2079 1865 1519 1014 477 710 438 419 374 518 564 657 646 730 670 695
4804 4770 4754 4756 4633 4527 4430 4310 4178 4002 3834 3666 3622 3614 3524 3420 3313 3197 3113 3015 2914 2805 2734 2653 2472 2221 1937 1689 1359 948 853 700 578 322 425 353 353 454 477 381 369 534
4978 4878 4806 4767 4693 4567 4404 4286 4156 4021 3866 3835 3696 3581 3512 3429 3335 3238 3147 3054 2968 2890 2755 2583 2384 2075 1809 1606 1313 1208 1026 729 547 538 476 579 526 227 249 509 1030 1100
5011 4872 4788 4722 4639 4510 4355 4202 4088 4106 4012 3919 3758 3628 3508 3401 3321 3258 3185 3103 3013 2920 2746 2477 2235 1979 1776 1547 1456 1366 975 642 720 571 556 380 561 538 498 418 309 819
4990 4873 4752 4657 4560 4444 4257 4078 4038 4055 3984 3969 3816 3669 3579 3497 3397 3357 3308 3235 3093 2939 2704 2417 2162 1975 1727 1554 1507 1263 1072 985 684 403 480 308 672 411 410 3 11 166
Wind_Speed
17 17 18 18 17 18 21 22 20 20 19 18 19 18 18 17 19 20 22 23 24 25 24 25 25 24 23 21 24 27 27 29 29 29 29 28 26 26 25 25 27 nan
17 17 18 18 18 18 20 21 19 18 18 17 17 17 16 18 18 22 23 23 21 22 24 24 24 25 24 23 24 27 29 29 29 29 30 28 26 25 25 26 26 27
18 19 20 20 20 19 19 17 16 15 16 16 16 16 16 18 19 21 23 23 21 22 24 24 24 26 25 25 25 26 29 30 31 31 32 30 27 25 24 25 25 28
19 20 19 19 18 17 15 15 14 12 12 13 15 16 17 16 18 21 22 24 23 23 25 26 27 26 27 28 27 28 29 30 32 33 34 32 29 27 26 25 26 27
18 17 17 16 15 14 12 13 14 12 12 13 15 17 17 18 18 21 22 23 24 25 26 28 28 28 29 29 29 30 30 31 31 33 34 34 32 30 27 27 27 27
14 15 15 14 13 13 12 12 12 12 13 14 16 16 17 20 20 23 25 25 25 27 28 29 30 30 31 30 30 31 32 33 33 34 34 34 33 31 29 29 28 26
14 13 14 12 12 12 12 10 11 12 13 15 15 16 18 20 22 24 27 28 29 29 30 31 32 31 31 31 31 32 33 34 35 37 37 35 35 33 31 30 28 28
14 13 12 12 12 12 11 10 11 12 14 15 16 16 18 20 23 25 27 29 30 31 31 32 33 33 33 33 34 35 35 34 36 38 38 38 36 34 31 29 28 29
14 13 12 12 12 10 10 11 12 13 14 15 15 16 17 21 24 26 28 30 31 32 32 32 34 35 35 37 38 38 37 36 37 39 40 39 37 35 32 29 28 30
13 13 13 12 11 9 11 13 13 13 13 14 14 16 19 21 25 27 28 30 32 33 34 35 37 38 39 40 41 40 39 37 36 37 39 40 38 36 34 31 30 31
13 12 12 12 12 11 13 14 14 14 13 14 15 17 20 22 24 26 28 30 32 34 36 38 40 42 43 43 41 39 39 37 36 36 38 41 41 38 36 33 31 32
13 12 11 12 13 13 14 14 13 13 14 14 17 18 20 22 25 26 28 31 32 35 37 39 41 43 45 44 43 44 43 39 37 37 39 42 43 41 38 34 32 32
14 12 11 12 13 13 12 12 11 12 15 17 17 18 20 22 25 29 29 32 34 35 38 40 42 44 46 45 44 45 46 44 41 39 39 42 44 44 41 37 33 32
15 12 12 12 12 11 11 11 10 11 12 14 17 19 22 25 28 31 32 33 35 37 39 40 42 45 49 50 49 49 48 47 46 44 43 43 45 45 44 40 36 35
16 14 12 12 12 11 11 11 11 10 9 12 17 22 24 27 29 31 33 35 37 40 41 42 44 47 50 53 53 52 50 50 50 49 47 46 46 45 44 42 38 35
18 17 15 14 12 11 11 12 11 10 9 14 20 24 26 28 30 32 34 37 39 41 42 43 45 47 53 61 59 56 56 53 51 50 48 47 47 44 41 41 39 35
19 18 18 15 13 11 11 12 12 12 15 17 20 23 26 28 30 32 34 35 37 39 41 42 45 48 58 62 63 62 58 54 51 49 47 47 48 44 39 38 36 34
20 19 19 16 13 11 12 13 14 17 19 21 22 24 26 28 30 32 34 36 36 37 40 42 44 51 60 62 62 61 57 51 47 46 46 47 46 42 37 35 34 36
20 19 18 16 13 12 13 15 17 20 21 23 25 26 28 29 31 34 36 37 38 40 41 44 46 54 60 63 62 61 58 51 46 45 45 45 44 41 37 36 36 38
20 19 17 15 15 15 16 16 19 21 23 25 27 29 31 31 32 36 38 40 40 41 44 46 47 55 61 63 64 65 59 51 43 42 41 42 41 40 39 38 37 40
19 18 17 17 18 18 18 19 20 22 25 28 30 32 34 35 35 38 40 41 42 43 44 47 47 58 61 63 64 63 55 42 38 38 38 39 40 40 40 40 41 41
20 20 20 20 21 22 21 22 23 24 27 30 33 34 35 37 36 39 42 43 44 45 46 48 50 60 61 62 62 63 55 43 39 39 39 39 40 42 42 43 44 43
21 23 23 24 24 25 25 26 27 28 30 33 36 38 39 39 40 41 43 44 45 46 48 49 52 58 62 63 66 71 62 49 45 43 43 43 43 43 43 43 42 44
23 25 26 26 27 28 29 30 31 32 34 36 39 41 42 42 44 46 46 46 48 49 50 51 53 57 65 66 69 69 63 54 49 47 44 44 45 46 47 47 45 45
26 28 29 29 30 31 33 33 34 36 37 39 41 43 45 47 49 49 48 48 50 50 53 55 54 56 63 66 66 64 59 52 51 49 47 47 48 49 49 50 47 42
30 31 32 32 34 35 35 36 38 39 40 42 43 46 48 49 50 49 48 49 51 54 53 54 54 54 58 65 63 61 60 54 51 50 50 50 49 50 51 nan nan 42
Wind_Direction
310 306 308 311 313 311 314 318 320 318 316 315 317 321 324 323 323 323 329 331 331 335 337 338 338 338 337 330 327 329 332 336 333 330 326 319 313 309 308 308 304 nan
313 310 305 308 308 308 310 318 322 320 318 319 319 319 315 321 322 324 328 335 334 337 341 343 343 345 343 338 334 331 336 338 338 336 339 336 329 319 313 310 309 308
309 308 311 313 313 316 314 317 321 321 321 325 323 319 317 324 322 325 329 335 337 334 339 343 341 344 345 345 341 338 337 338 339 338 340 344 339 333 328 319 316 315
314 313 314 315 313 318 313 316 323 326 324 324 328 325 326 324 324 329 333 337 337 336 336 340 343 342 344 344 341 340 338 335 336 333 337 340 340 335 333 325 318 317
322 318 315 315 315 317 318 322 331 334 331 329 329 330 330 329 323 329 334 337 337 338 338 339 341 343 342 341 339 336 335 333 332 331 331 335 337 334 333 326 319 315
326 320 315 319 320 322 329 331 331 335 333 331 336 331 330 331 328 331 335 338 339 340 340 340 341 342 340 337 335 334 333 331 331 330 330 331 333 332 329 327 322 317
331 321 321 321 327 331 333 331 330 335 338 334 329 332 330 332 334 335 337 339 340 341 343 342 340 340 338 335 332 333 333 331 329 330 331 330 330 331 328 326 325 320
334 323 320 320 331 334 335 335 335 336 336 330 337 329 330 334 338 336 336 337 339 342 343 343 340 338 338 336 336 335 335 332 331 330 330 330 328 330 330 327 324 323
329 324 324 330 337 335 339 340 339 334 332 334 335 331 329 334 336 336 336 337 338 341 341 339 337 337 337 338 338 338 335 333 332 332 331 331 331 331 330 326 321 323
331 327 332 335 341 338 342 340 336 333 331 333 333 331 331 331 334 336 336 338 339 339 338 337 337 337 339 338 336 334 335 335 333 332 331 333 334 333 331 327 323 319
335 331 336 341 343 337 342 340 338 335 331 335 330 334 332 330 334 336 339 340 341 340 339 340 339 339 339 335 329 329 333 335 334 332 331 334 337 335 331 327 324 321
337 334 339 343 341 337 342 345 342 338 334 329 331 336 337 337 338 339 341 344 343 340 340 341 338 337 335 330 330 332 334 335 336 335 333 331 335 335 333 326 323 320
336 336 331 333 334 336 338 345 346 340 334 333 334 341 343 342 342 342 342 341 341 339 340 339 337 334 329 327 332 333 334 338 337 335 333 331 331 333 331 326 321 318
332 325 322 325 328 331 335 340 339 334 335 334 336 343 343 342 342 343 340 337 338 338 339 338 334 331 328 331 335 337 336 336 337 333 332 332 329 328 326 323 317 314
320 309 311 315 322 328 328 327 332 335 336 337 339 341 336 338 340 339 336 335 336 338 338 337 332 329 328 331 336 336 334 336 335 333 331 330 328 325 322 319 315 314
312 305 308 313 317 324 324 322 322 324 326 332 336 337 333 332 335 335 334 336 337 337 336 334 329 326 329 335 337 332 331 331 332 332 329 327 324 321 318 316 315 314
305 304 304 311 315 313 309 308 310 310 314 321 327 330 330 327 329 331 332 333 335 334 334 330 326 324 329 335 337 334 329 332 333 329 326 324 323 322 319 314 313 314
303 302 302 305 304 303 297 297 300 307 312 314 318 323 322 319 324 328 328 327 327 329 330 326 323 324 329 334 335 334 334 332 328 324 323 324 323 321 317 314 311 307
297 299 300 298 297 289 279 285 300 308 310 310 315 315 311 317 322 321 322 322 324 327 327 323 322 324 329 333 334 334 336 332 325 325 324 322 320 319 316 313 311 307
291 293 292 289 283 277 274 286 301 309 307 303 302 306 313 315 314 317 317 320 322 324 323 320 321 323 328 331 333 333 333 328 321 321 321 321 321 319 317 315 313 308
285 285 282 278 278 277 277 287 298 300 301 298 301 308 310 311 313 315 316 317 318 318 317 317 319 322 327 330 332 329 320 313 318 315 314 319 321 321 317 315 311 310
278 275 273 272 275 278 281 287 292 297 299 294 295 298 301 302 306 310 313 314 315 314 313 316 315 322 326 328 326 314 314 327 325 323 323 322 321 317 315 313 312 312
271 272 272 274 278 282 285 288 291 292 290 288 292 296 298 301 304 305 307 310 312 311 311 312 312 321 323 324 320 320 329 331 330 328 326 325 322 316 314 314 310 306
267 271 275 278 281 285 286 284 285 286 289 291 295 297 299 301 300 301 305 309 311 310 311 311 313 321 325 325 322 326 327 329 332 330 326 320 318 317 315 311 308 308
265 269 273 278 280 280 282 285 287 290 291 292 293 295 299 301 302 303 303 306 308 308 308 308 312 321 324 318 321 324 325 327 329 326 323 320 317 314 311 308 305 309
263 267 270 275 277 278 281 284 283 286 291 292 291 292 295 296 298 300 302 304 305 304 304 309 315 313 312 316 318 325 329 326 324 323 322 320 315 312 310 nan nan 310